Regional Weather Roundup
Issued by NWS

Home | Current Version | Previous Version | Graphics & Text | Print | Product List | Glossary On
Versions: 1 2 3 4 5 6 7 8 9 10 11 12 13 14 15 16 17 18 19 20 21 22 23 24 25 26 27 28 29 30 31 32 33 34 35 36 37 38 39 40 41 42 43 44 45 46 47 48 49 50
000
ASUS43 KIND 311309
RWRIN

WEATHER ROUNDUP FOR INDIANA
NATIONAL WEATHER SERVICE INDIANAPOLIS IN
800 AM EST SAT JAN 31 2015

NOTE: "FAIR" INDICATES FEW OR NO CLOUDS BELOW 12,000 FEET WITH NO
SIGNIFICANT WEATHER AND/OR OBSTRUCTIONS TO VISIBILITY.

* - STATION DOES NOT REPORT WEATHER SUCH AS PRECIPITATION OR FOG.

+ - STATION NOT QUALITY CONTROLLED BY THE NATIONAL WEATHER SERVICE.
    USE DATA WITH CAUTION...ESPECIALLY DEWPOINT AND RELATIVE
    HUMIDITY OBSERVATIONS.

INZ001>003-010>013-019-020-311400-
NORTHWEST INDIANA

CITY           SKY/WX    TMP DP  RH WIND       PRES   REMARKS
GARY /AIRPORT/ PTCLDY    27  19  74 VRB3      30.28S
KNOX *+        CLEAR     21  10  63 S6        30.28S WCI  14
LA PORTE +     PTCLDY    23  19  85 S6        30.28S WCI  16
MICHIGAN CITY+ PTCLDY    25  18  74 S7        30.27F WCI  17
MONTICELLO +   MOCLDY    22  18  83 SW7       30.31S WCI  14
RENSSELAER +   PTCLDY    25  23  93 SW6       30.29S WCI  18
VALPARAISO     PTCLDY    22  18  85 S6        30.28S WCI  14

$$

LMZ046-743>745-311400-
SOUTHERN LAKE MICHIGAN

STATION/POSITION TIME  TEMP WIND        PRES
                       AIR  DIR/SP/G
                 (UTC) (F)  (DEG/KT/KT) (MB)
MICHIGAN CITY    1300   24  160/ 12/ 14   N/A

$$

INZ004-005-014>016-021>024-311400-
NORTH CENTRAL INDIANA

CITY           SKY/WX    TMP DP  RH WIND       PRES   REMARKS
ELKHART        PTCLDY    21  14  73 SW3       30.28
GOSHEN         CLEAR     21  16  81 S8        30.28S WCI  11
LOGANSPORT +   CLOUDY    23  19  86 S6        30.32S WCI  16
PERU/GRISSOM   MOCLDY    20  17  85 S8        30.30S WCI  11
ROCHESTER +    PTCLDY    27  21  80 S5        30.30F WCI  21
SOUTH BEND     CLEAR     22  16  78 SW9       30.28R WCI  12
WARSAW +       PTCLDY    21  18  86 CALM      30.29S

$$

INZ006>009-017-018-025>027-311400-
NORTHEAST INDIANA

CITY           SKY/WX    TMP DP  RH WIND       PRES   REMARKS
ANGOLA *+      CLEAR     16  12  86 CALM      30.27R
AUBURN +       CLEAR     19  14  79 CALM      30.31R
FORT WAYNE     MOCLDY    20  16  84 SW8       30.31S WCI  10
HUNTINGTON +   CLOUDY    21  14  73 S3        30.31F

$$

INZ028-029-035-036-043>045-051>053-311400-
WEST CENTRAL INDIANA

CITY           SKY/WX    TMP DP  RH WIND       PRES   REMARKS
GREENCASTLE +  CLEAR     19  12  73 S3        30.33F
LAFAYETTE      PTCLDY    22  16  78 SW3       30.32F
TERRE HAUTE    PTCLDY    21  17  84 S5        30.35F WCI  15

$$

INZ030>032-037>040-046>048-054>057-064-065-311400-
CENTRAL INDIANA

CITY           SKY/WX    TMP DP  RH WIND       PRES   REMARKS
CP ATTERBURY + CLEAR     18  14  86 CALM      30.37S
FRANKFORT +    PTCLDY    21  18  86 S5        30.33S WCI  15
GREENWOOD *+   CLEAR     21  14  73 S6        30.35S WCI  14
INDIANAPOLIS   PTCLDY    18  14  84 S5        30.34S WCI  11
-EAGLE CREEK   CLEAR     18  14  84 CALM      30.33S
KOKOMO *+      PTCLDY    21  18  86 S5        30.32S WCI  15
MARION +       MOCLDY    22  17  83 S7        30.33S WCI  13
MT COMFORT *+  CLEAR     19  12  73 S6        30.34S WCI  11
SHELBYVILLE    CLEAR     22  16  78 S7        30.35R WCI  13
ZIONSVILLE +   PTCLDY    20  15  81 CALM      30.33S

$$

INZ033-034-041-042-049-050-058-059-311400-
EAST CENTRAL INDIANA

CITY           SKY/WX    TMP DP  RH WIND       PRES   REMARKS
MUNCIE         CLOUDY    22  16  78 S6        30.32S WCI  14

$$

INZ060-061-067>069-081>083-085>088-311400-
SOUTHWEST INDIANA

CITY           SKY/WX    TMP DP  RH WIND       PRES   REMARKS
EVANSVILLE     MOCLDY    27  22  81 CALM      30.39R
HUNTINGBURG *+ PTCLDY    21  18  86 SE3       30.38S
WASHINGTON +   PTCLDY    25  19  78 CALM      30.38R

$$

INZ062-063-066-070>080-084-089>092-311400-
SOUTH CENTRAL AND SOUTHEAST INDIANA

CITY           SKY/WX    TMP DP  RH WIND       PRES   REMARKS
BLOOMINGTON    PTCLDY    18  15  88 S3        30.35S
NORTH VERNON + PTCLDY    21  19  93 CALM      30.38R
SEYMOUR +      PTCLDY    21  16  79 CALM      30.38R

$$



USA.gov is the U.S. government's official web portal to all federal, state and local government web resources and services.